#timestamp,LO_Frequency,Hit 
1497841215.8,286047002.5,N
1497841235.6,286047002.7,N
1497841255.4,286047004.1,N
1497841275.3,286047003.5,N
1497841295.1,286047005.8,N
1497841296.0,286047005.8,N
1497841315.8,286047006.9,Y
1497841335.7,286047001.5,N
1497841355.5,286047002.4,N
1497841375.3,286047001.4,N
1497841395.2,286047001.7,N
1497841415.9,286047000.1,N
1497841435.7,286047000.2,N
1497841455.6,286046999.7,N
1497841475.4,286047000.2,N
1497841495.2,286047000.1,N
1497841515.0,286047001.7,N
1497841516.0,286047001.7,N
1497841535.8,286047001.6,N
1497841555.6,286047002.2,N
1497841575.4,286047002.4,N
1497841595.3,286047003.8,N
1497841615.1,286047002.3,N
1497841635.8,286046999.8,N
1497841655.7,286046999.9,N
1497841675.5,286047002.4,N
1497841695.3,286046999.7,N
1497841715.2,286047001.7,N
1497841735.9,286047003.8,N
1497841755.7,286047005.4,N
1497841775.5,286047004.2,N
1497841795.4,286047006.0,N
1497841815.2,286047004.8,N
1497841835.0,286047004.5,N
1497841835.9,286047004.5,N
1497841855.8,286047006.6,Y
1497841875.6,286047003.2,N
1497841895.4,286047004.4,N
1497841915.3,286047004.1,N
1497841935.1,286047002.1,N
1497841955.8,286047004.4,N
1497841975.7,286047001.6,N
1497841995.5,286047003.5,N
1497842015.3,286047004.2,N
1497842035.2,286047003.6,N
1497842055.9,286047005.5,N
1497842075.7,286047003.8,N
1497842095.5,286047003.2,N
1497842115.4,286047005.7,N
1497842135.2,286047003.7,N
1497842155.0,286047001.7,N
1497842155.9,286047001.7,N
1497842175.8,286047004.0,N
1497842195.6,286047004.7,N
1497842215.4,286047007.5,Y
1497842235.3,286047004.2,N
1497842255.1,286047004.3,N
1497842275.8,286047004.1,N
1497842295.7,286047001.5,N
1497842315.5,286047004.4,N
1497842335.3,286047002.5,N
1497842355.2,286047004.3,N
1497842375.9,286047001.4,N
1497842395.7,286047002.8,N
1497842415.6,286047001.8,N
1497842435.4,286047004.4,N
1497842455.2,286047004.1,N
1497842475.0,286047004.0,N
1497842476.0,286047004.0,N
1497842495.8,286047004.1,N
1497842515.6,286047003.1,N
1497842535.4,286047006.0,Y
1497842555.3,286047002.8,N
1497842575.1,286047000.9,N
1497842595.8,286046999.9,N
1497842615.7,286047002.6,N
1497842635.5,286047002.0,N
1497842655.3,286047001.4,N
1497842675.2,286047006.0,N
1497842695.9,286047004.8,N
1497842715.7,286047001.4,N
1497842735.6,286047001.0,N
1497842755.4,286047002.3,N
1497842775.2,286047004.0,N
1497842795.0,286047003.6,N
1497842796.0,286047003.6,N
1497842815.8,286047003.9,N
1497842835.6,286047003.0,N
1497842855.4,286047003.6,N
1497842875.3,286047004.0,N
1497842895.1,286047002.4,N
1497842915.8,286047002.8,N
1497842935.7,286047001.6,N
1497842955.5,286047004.0,N
1497842975.3,286047003.4,N
1497842995.2,286047005.0,N
1497843015.9,286047005.0,N
1497843035.7,286047004.8,N
1497843055.6,286047007.4,Y
1497843075.4,286047004.2,N
1497843095.2,286047003.6,N
1497843115.1,286047003.5,N
1497843116.0,286047003.5,N
1497843135.8,286047004.0,N
1497843155.6,286047004.3,N
1497843175.4,286047001.7,N
1497843195.3,286047003.0,N
1497843215.1,286047003.8,N
1497843235.8,286047004.3,N
1497843255.7,286047001.4,N
1497843275.5,286047004.1,N
1497843295.3,286047002.6,N
1497843315.2,286046998.2,N
1497843335.9,286046998.7,N
1497843355.7,286046998.5,N
1497843375.6,286046998.6,N
1497843395.4,286047000.1,N
1497843415.2,286047001.9,N
1497843435.0,286047002.1,N
1497843436.0,286047002.1,N
1497843455.8,286046998.4,N
1497843475.6,286046998.5,N
1497843495.4,286047000.4,N
1497843515.3,286046998.5,N
1497843535.1,286047000.9,N
1497843555.8,286046999.8,N
1497843575.7,286047002.5,N
1497843595.5,286047004.0,N
1497843615.3,286047001.7,N
1497843635.2,286047005.4,N
1497843655.9,286047005.0,N
1497843675.7,286047007.6,Y
1497843695.6,286047001.4,N
1497843715.4,286047001.7,N
1497843735.2,286047004.4,N
1497843755.0,286047001.5,N
1497843756.0,286047001.5,N
1497843775.8,286047000.6,N
1497843795.6,286047000.0,N
1497843815.5,286046999.9,N
1497843835.3,286047002.8,N
1497843855.1,286047001.6,N
1497843875.8,286047002.2,N
1497843895.7,286046999.8,N
1497843915.5,286047002.1,N
1497843935.3,286047000.4,N
1497843955.2,286047002.5,N
1497843975.9,286047002.6,N
1497843995.7,286047000.8,N
1497844015.6,286047002.3,N
1497844035.4,286047001.9,N
1497844055.2,286047002.7,N
1497844075.1,286047001.8,N
1497844076.0,286047001.8,N
1497844095.8,286047003.6,N
1497844115.6,286047001.6,N
1497844135.5,286047002.8,N
1497844155.3,286047002.5,N
1497844175.1,286047004.2,N
1497844195.9,286047001.8,N
1497844215.7,286047001.9,N
1497844235.5,286047001.3,N
1497844255.3,286047003.7,N
1497844275.2,286047003.5,N
1497844295.9,286047002.2,N
1497844315.7,286047004.1,N
1497844335.6,286047005.1,N
1497844355.4,286047003.5,N
1497844375.2,286047005.9,N
1497844395.1,286047006.6,Y
1497844396.0,286047006.6,Y
1497844415.8,286047004.4,N
1497844435.7,286047001.7,N
1497844455.5,286047002.4,N
1497844475.3,286047000.5,N
1497844495.2,286046998.1,N
1497844515.9,286046999.2,N
1497844535.7,286047001.0,N
1497844555.6,286046997.5,N
1497844575.4,286046996.8,N
1497844595.2,286046997.5,N
1497844615.1,286046996.9,N
1497844616.0,286046996.9,N
1497844635.8,286046996.5,N
1497844655.6,286046996.9,N
1497844675.4,286046997.8,N
1497844695.3,286046997.8,N
1497844715.1,286046996.5,N
1497844735.8,286047001.1,N
1497844755.7,286047000.9,N
1497844775.5,286047000.6,N
1497844795.3,286046998.5,N
